Location: Góry Miechowskie
(50.3599°N, 20.1803°E)
Time: 04:22:28
(UTC+00:00)

Vanguard 2 Rocket - Pass Details

Date: 13 September 2024
Orbit: 553 x 3298 km, 32.9° (Epoch: 14 October)

Event Time Altitude Azimuth Distance (km) Brightness Sun altitude
Exits shadow 23:37:28 23° 137° (SE) 3,923 9.8 -34.7°
Drops below altitude 10° 23:47:29 10° 100° (E) 5,668 11.0 -34.1°
Sets 23:53:53 0° 89° (E) 7,024 11.7 -33.7°
